Middleton, WI

10:20 AM CST on January 17, 2018 (GMT -0600)
Middleton

Weather History for KC29 - December, 2013

Change the Weather History Date:

Sunday, December 8, 2013

  Actual Average (KMSN) Record (KMSN)
Temperature  
Mean Temperature 16 °F -  
Max Temperature 21 °F 31 °F 60 °F (1946)
Min Temperature 10 °F 16 °F -16 °F (1876)
Degree Days  
Heating Degree Days 50    
Moisture  
Dew Point 9 °F    
Average Humidity 74    
Maximum Humidity 90    
Minimum Humidity 53    
Precipitation  
Precipitation 0.01 in - - ()
Sea Level Pressure  
Sea Level Pressure 30.25 in    
Wind  
Wind Speed 5 mph (NE)    
Max Wind Speed 12 mph    
Max Gust Speed -    
Visibility 6 miles    
Events      
Averages and records for this station are not official NWS values.
T = Trace of Precipitation, MM = Missing Value Source: NWS Daily Summary

Daily Weather History Graph

Daily Weather History Graph

Search for Another Location

Airport or City:

Trip Planner

Search our weather history database for the weather conditions in past years. The results will help you decide how hot, cold, wet, or windy it might be!

Date:

Astronomy

Dec. 08, 2013 Rise Set
Actual Time 7:17 AM CST 4:22 PM CST
Civil Twilight 6:45 AM CST 4:55 PM CST
Nautical Twilight 6:09 AM CST 5:30 PM CST
Astronomical Twilight 5:34 AM CST 6:05 PM CST
Moon 11:30 AM CST (12/8) 11:20 PM CST (12/8)
Length of Visible Light 10h 10m
Length of Day
9h 05m
Waxing Crescent, 40% of the Moon is Illuminated
Dec 8
Waxing Crescent
Dec 9
First Quarter
Dec 17
Full
Dec 25
Last Quarter
Jan 1
New

Hourly Weather History & Observations

Time (CST) Temp. Windchill Dew Point Humidity Pressure Visibility Wind Dir Wind Speed Gust Speed Precip Events Conditions
12:15 AM 10.6 °F - -0.9 °F 60% 30.56 in 10.0 mi Calm Calm - N/A   Overcast
12:35 AM 10.6 °F - -2.7 °F 55% 30.57 in 10.0 mi Calm Calm - N/A   Overcast
12:55 AM 10.8 °F - -1.5 °F 58% 30.56 in 10.0 mi Calm Calm - N/A   Overcast
1:15 AM 10.9 °F - -1.3 °F 58% 30.56 in 10.0 mi Calm Calm - N/A   Overcast
1:35 AM 11.1 °F - -0.9 °F 58% 30.55 in 10.0 mi Calm Calm - N/A   Scattered Clouds
1:55 AM 10.9 °F - 0.7 °F 63% 30.54 in 10.0 mi Calm Calm - N/A   Clear
2:15 AM 11.1 °F 4.9 °F 0.7 °F 63% 30.52 in 10.0 mi NE 3.5 mph - N/A   Mostly Cloudy
2:35 AM 10.9 °F 2.9 °F 0.5 °F 63% 30.51 in 10.0 mi NE 4.6 mph - N/A   Overcast
2:55 AM 10.9 °F 2.9 °F 1.2 °F 65% 30.50 in 10.0 mi ENE 4.6 mph - N/A   Overcast
3:15 AM 11.1 °F 1.7 °F 1.6 °F 66% 30.50 in 10.0 mi ENE 5.8 mph - N/A   Overcast
3:35 AM 11.3 °F -0.4 °F 0.3 °F 61% 30.47 in 10.0 mi ENE 8.1 mph - N/A   Overcast
3:55 AM 11.1 °F 1.7 °F 0.3 °F 62% 30.47 in 10.0 mi ENE 5.8 mph - N/A   Overcast
4:15 AM 11.1 °F 1.7 °F 0.5 °F 62% 30.47 in 10.0 mi ENE 5.8 mph - N/A   Overcast
4:35 AM 11.3 °F 1.9 °F -0.0 °F 60% 30.46 in 10.0 mi NE 5.8 mph - N/A   Overcast
4:55 AM 11.3 °F 0.7 °F -0.0 °F 60% 30.45 in 10.0 mi ENE 6.9 mph - N/A   Overcast
5:15 AM 11.7 °F 0.0 °F 0.3 °F 60% 30.45 in 10.0 mi ENE 8.1 mph - N/A   Overcast
5:35 AM 11.3 °F -0.4 °F 0.3 °F 61% 30.45 in 10.0 mi ENE 8.1 mph - N/A   Overcast
5:55 AM 11.3 °F 0.7 °F -0.2 °F 60% 30.44 in 10.0 mi East 6.9 mph - N/A   Overcast
6:15 AM 11.3 °F 0.7 °F 0.3 °F 61% 30.43 in 10.0 mi ENE 6.9 mph - N/A   Overcast
6:35 AM 11.5 °F -0.2 °F 1.0 °F 63% 30.42 in 10.0 mi ENE 8.1 mph - N/A   Overcast
6:55 AM 11.8 °F 0.3 °F 0.7 °F 61% 30.41 in 10.0 mi ENE 8.1 mph - N/A   Overcast
7:15 AM 11.8 °F 0.3 °F 0.3 °F 60% 30.42 in 10.0 mi East 8.1 mph - N/A   Overcast
7:35 AM 12.0 °F 0.5 °F 1.2 °F 62% 30.40 in 10.0 mi ENE 8.1 mph - N/A   Overcast
7:55 AM 12.4 °F 0.0 °F 1.8 °F 63% 30.40 in 10.0 mi ENE 9.2 mph - N/A   Overcast
8:15 AM 12.7 °F -1.1 °F 0.5 °F 58% 30.38 in 10.0 mi East 11.5 mph - N/A   Overcast
8:34 AM 12.2 °F 0.7 °F 1.4 °F 62% 30.38 in 10.0 mi ENE 8.1 mph - N/A   Overcast
8:35 AM 13.1 °F 1.8 °F 1.2 °F 59% 30.38 in 10.0 mi ENE 8.1 mph - N/A   Overcast
8:55 AM 13.6 °F 0.7 °F 1.0 °F 57% 30.38 in 10.0 mi ENE 10.4 mph - N/A   Overcast
9:15 AM 14.0 °F 2.9 °F 1.6 °F 58% 30.37 in 10.0 mi East 8.1 mph - N/A   Overcast
9:35 AM 14.9 °F 2.3 °F 1.0 °F 54% 30.36 in 10.0 mi ENE 10.4 mph - N/A   Overcast
9:55 AM 15.4 °F 4.6 °F 1.2 °F 54% 30.36 in 10.0 mi East 8.1 mph - N/A   Overcast
10:15 AM 16.3 °F 5.7 °F 1.8 °F 53% 30.35 in 10.0 mi ENE 8.1 mph - N/A   Overcast
10:35 AM 16.2 °F 4.7 °F 5.4 °F 62% 30.34 in 2.5 mi ENE 9.2 mph - N/A   Overcast
10:55 AM 16.3 °F 5.7 °F 7.9 °F 69% 30.32 in 1.8 mi NE 8.1 mph - N/A   Overcast
11:15 AM 16.5 °F 6.0 °F 9.7 °F 74% 30.30 in 2.0 mi ENE 8.1 mph - N/A   Overcast
11:35 AM 17.2 °F 6.8 °F 10.8 °F 76% 30.28 in 1.2 mi East 8.1 mph - N/A   Overcast
11:55 AM 17.6 °F 7.3 °F 12.2 °F 79% 30.25 in 1.0 mi ENE 8.1 mph - N/A   Overcast
12:15 PM 18.1 °F 6.3 °F 12.6 °F 79% 30.25 in 0.8 mi ENE 10.4 mph - N/A   Overcast
12:35 PM 18.5 °F 6.8 °F 13.1 °F 79% 30.23 in 1.2 mi ENE 10.4 mph - N/A   Overcast
12:55 PM 18.5 °F 6.1 °F 13.3 °F 80% 30.22 in 1.0 mi ENE 11.5 mph - N/A   Overcast
1:15 PM 18.9 °F 7.2 °F 14.0 °F 81% 30.19 in 0.8 mi ENE 10.4 mph - N/A   Overcast
1:35 PM 19.2 °F 9.3 °F 14.5 °F 82% 30.17 in 0.8 mi ENE 8.1 mph - N/A   Overcast
1:55 PM 19.8 °F 9.9 °F 15.1 °F 82% 30.16 in 0.8 mi ENE 8.1 mph - N/A   Overcast
2:15 PM 19.9 °F 12.1 °F 15.4 °F 83% 30.15 in 0.5 mi ENE 5.8 mph - N/A   Overcast
2:35 PM 19.9 °F 12.1 °F 15.6 °F 83% 30.13 in 1.2 mi ENE 5.8 mph - N/A   Overcast
2:55 PM 19.8 °F 10.8 °F 15.6 °F 84% 30.13 in 1.0 mi NE 6.9 mph - N/A   Overcast
3:15 PM 19.2 °F 9.3 °F 15.3 °F 85% 30.12 in 1.8 mi NE 8.1 mph - N/A   Overcast
3:35 PM 19.4 °F 11.5 °F 15.6 °F 85% 30.11 in 0.8 mi NE 5.8 mph - N/A   Overcast
3:55 PM 19.4 °F 11.5 °F 15.8 °F 86% 30.10 in 0.5 mi ENE 5.8 mph - N/A   Overcast
4:15 PM 19.9 °F 11.1 °F 16.5 °F 87% 30.09 in 1.0 mi ENE 6.9 mph - N/A   Overcast
4:35 PM 20.1 °F 12.3 °F 17.1 °F 88% 30.08 in 0.5 mi ENE 5.8 mph - N/A   Overcast
4:55 PM 20.3 °F 13.8 °F 17.6 °F 89% 30.06 in 1.5 mi ENE 4.6 mph - N/A   Overcast
5:15 PM 20.7 °F 11.9 °F 17.6 °F 88% 30.05 in 1.0 mi ENE 6.9 mph - N/A   Overcast
5:35 PM 21.0 °F 12.4 °F 18.3 °F 89% 30.05 in 1.0 mi ENE 6.9 mph - N/A   Overcast
5:55 PM 21.0 °F 13.4 °F 18.3 °F 89% 30.04 in 1.8 mi ENE 5.8 mph - N/A   Overcast
6:15 PM 21.0 °F 12.4 °F 18.3 °F 89% 30.03 in 2.5 mi NE 6.9 mph - 0.01 in   Overcast
6:35 PM 19.9 °F 11.1 °F 17.2 °F 89% 30.04 in 1.8 mi NNE 6.9 mph - 0.01 in   Overcast
6:55 PM 20.1 °F 15.2 °F 17.4 °F 89% 30.03 in 4.0 mi NE 3.5 mph - 0.01 in   Overcast
7:15 PM 20.3 °F - 17.6 °F 89% 30.03 in 1.2 mi Calm Calm - N/A   Overcast
7:35 PM 19.9 °F 14.9 °F 17.1 °F 89% 30.02 in 1.8 mi NNE 3.5 mph - N/A   Overcast
7:55 PM 19.8 °F 13.2 °F 17.1 °F 89% 30.02 in 2.0 mi NNE 4.6 mph - N/A   Overcast
8:15 PM 19.4 °F 14.3 °F 16.7 °F 89% 30.00 in 2.5 mi NNE 3.5 mph - N/A   Overcast
8:35 PM 19.8 °F 14.7 °F 17.2 °F 90% 30.00 in 1.2 mi NNE 3.5 mph - N/A   Overcast
8:55 PM 19.8 °F 13.2 °F 17.2 °F 90% 29.98 in 5.0 mi North 4.6 mph - N/A   Overcast
9:15 PM 19.6 °F 13.0 °F 16.7 °F 89% 29.98 in 5.0 mi North 4.6 mph - N/A   Overcast
9:35 PM 19.4 °F 14.3 °F 16.7 °F 89% 29.98 in 5.0 mi NNW 3.5 mph - N/A   Overcast
9:50 PM 19.4 °F 12.8 °F 16.5 °F 89% 29.97 in 7.0 mi North 4.6 mph - N/A   Overcast
10:15 PM 19.4 °F 12.8 °F 16.2 °F 87% 29.96 in 7.0 mi North 4.6 mph - N/A   Overcast
10:35 PM 19.4 °F 12.8 °F 16.0 °F 87% 29.96 in 7.0 mi North 4.6 mph - N/A   Overcast
10:55 PM 18.3 °F 10.2 °F 14.7 °F 86% 29.96 in 7.0 mi NNW 5.8 mph - N/A   Overcast
11:15 PM 18.1 °F 12.9 °F 14.0 °F 84% 29.95 in 5.0 mi NNW 3.5 mph - N/A   Overcast
11:35 PM 18.1 °F 11.3 °F 14.4 °F 85% 29.95 in 4.0 mi NNW 4.6 mph - N/A   Overcast
11:55 PM 18.0 °F 11.1 °F 14.0 °F 84% 29.94 in 5.0 mi NNW 4.6 mph - N/A   Overcast